Location: Unspecified
(0.0000°N, 0.0000°E)
Time: 16:01:10
(UTC+00:00)

Vanguard 3 - Pass Details

Date: 13 December 2017
Orbit: 508 x 3264 km, 33.3° (Epoch: 21 July)

Event Time Altitude Azimuth Distance (km) Brightness Sun altitude
Rises 21:28:05 0° 288° (WNW) 4,384 11.2 -47.6°
Reaches altitude 10° 21:30:39 10° 282° (WNW) 3,710 10.8 -48.1°
Maximum altitude 21:40:34 50° 209° (SSW) 2,668 9.7 -50.1°
Drops below altitude 10° 21:57:05 10° 139° (SE) 5,924 11.5 -53.2°
Sets 22:02:32 0° 134° (SE) 7,139 11.9 -54.3°
